Location: Balsareny
(41.8670°N, 1.8830°E)
Time: 15:09:46
(UTC+01:00)

Envisat - Pass Details

Date: 07 December 2021
Orbit: 764 x 766 km, 98.2° (Epoch: 19 January)

Event Time Altitude Azimuth Distance (km) Brightness Sun altitude
Rises 06:20:31 0° 8° (N) 3,241 6.2 -19.1°
Reaches altitude 10° 06:22:52 10° 4° (N) 2,310 5.4 -18.7°
Maximum altitude 06:27:48 53° 288° (WNW) 932 3.0 -17.8°
Drops below altitude 10° 06:32:43 10° 212° (SSW) 2,294 5.3 -16.9°
Sets 06:35:03 0° 208° (SSW) 3,215 6.1 -16.5°
